COSMOS 1833

Last updated on Wed Jul 02 2025 00:02:13 GMT+0000 (Coordinated Universal Time)

1 17589U 87027A 25182.55392927 .00000132 00000+0 96189-4 0 9996 2 17589 70.9150 133.8821 0024990 221.0632 138.8608 14.13011274974839
UTC large
Height (km)
Speed (km/s)
/
Latitude / Longitude
Inclination (degrees)
Orbital Period (minutes)
Azimuth
Elevation
Range (km)
Doppler Factor

Next 0 passes for location: London (51.5072 / 0.1276)

Sorry there are no passes over London.